TimeEST,TemperatureF,Dew PointF,Humidity,Sea Level PressureIn,VisibilityMPH,Wind Direction,Wind SpeedMPH,Gust SpeedMPH,PrecipitationIn,Events,Conditions,WindDirDegrees,DateUTC
12:15 AM,55.4,55.4,100,30.02,0.2,Calm,Calm,-,N/A,Fog,Fog,0,2012-12-08 05:15:00
12:35 AM,55.4,55.4,100,30.02,0.5,NW,4.6,-,N/A,Fog,Fog,320,2012-12-08 05:35:00
12:55 AM,55.4,55.4,100,30.02,0.2,NNW,4.6,-,N/A,Fog,Fog,330,2012-12-08 05:55:00
1:15 AM,55.4,55.4,100,30.01,0.2,NNW,4.6,-,N/A,Fog,Fog,330,2012-12-08 06:15:00
1:35 AM,55.4,55.4,100,30.01,0.2,NNW,4.6,-,N/A,Fog,Fog,330,2012-12-08 06:35:00
1:55 AM,55.4,55.4,100,30.01,0.2,WNW,5.8,-,N/A,Fog,Fog,300,2012-12-08 06:55:00
2:15 AM,55.4,55.4,100,30.01,0.2,NNW,4.6,-,N/A,Fog,Fog,330,2012-12-08 07:15:00
2:35 AM,55.4,55.4,100,30.02,0.2,NNW,3.5,-,N/A,Fog,Fog,340,2012-12-08 07:35:00
2:55 AM,53.6,53.6,100,30.02,0.2,NNW,4.6,-,N/A,Fog,Fog,330,2012-12-08 07:55:00
3:15 AM,53.6,53.6,100,30.02,0.2,NW,5.8,-,N/A,Fog,Fog,310,2012-12-08 08:15:00
3:55 AM,53.6,53.6,100,30.02,0.2,NW,8.1,-,N/A,Fog,Fog,320,2012-12-08 08:55:00
4:15 AM,53.6,53.6,100,30.02,0.2,NNW,6.9,-,N/A,Fog,Fog,330,2012-12-08 09:15:00
4:35 AM,53.6,53.6,100,30.02,0.2,North,4.6,-,N/A,Fog,Fog,350,2012-12-08 09:35:00
4:55 AM,53.6,53.6,100,30.03,0.2,North,4.6,-,N/A,Fog,Fog,350,2012-12-08 09:55:00
5:15 AM,53.6,53.6,100,30.03,0.2,NNW,4.6,-,N/A,Fog,Fog,330,2012-12-08 10:15:00
5:35 AM,53.6,53.6,100,30.03,0.2,NW,6.9,-,N/A,Fog,Fog,320,2012-12-08 10:35:00
5:55 AM,53.6,53.6,100,30.04,0.2,NNW,4.6,-,N/A,Fog,Fog,330,2012-12-08 10:55:00
6:15 AM,53.6,53.6,100,30.04,0.5,NNW,4.6,-,N/A,Fog,Fog,340,2012-12-08 11:15:00
6:35 AM,53.6,53.6,100,30.05,1.8,North,3.5,-,N/A,,Overcast,360,2012-12-08 11:35:00
6:55 AM,53.6,53.6,100,30.06,1.0,Calm,Calm,-,N/A,,Overcast,0,2012-12-08 11:55:00
7:15 AM,53.6,53.6,100,30.06,0.5,Calm,Calm,-,N/A,Fog,Fog,0,2012-12-08 12:15:00
7:35 AM,53.6,53.6,100,30.06,0.2,Calm,Calm,-,N/A,Fog,Fog,0,2012-12-08 12:35:00
7:55 AM,53.6,53.6,100,30.07,0.2,Calm,Calm,-,N/A,Fog,Fog,0,2012-12-08 12:55:00
8:15 AM,53.6,53.6,100,30.07,0.2,Calm,Calm,-,N/A,Fog,Fog,0,2012-12-08 13:15:00
8:35 AM,55.4,55.4,100,30.08,0.2,Calm,Calm,-,N/A,Fog,Fog,0,2012-12-08 13:35:00
8:55 AM,55.4,55.4,100,30.08,0.2,Calm,Calm,-,N/A,Fog,Fog,0,2012-12-08 13:55:00
9:15 AM,55.4,55.4,100,30.09,1.0,Calm,Calm,-,N/A,,Overcast,0,2012-12-08 14:15:00
9:35 AM,55.4,55.4,100,30.10,2.5,Calm,Calm,-,N/A,,Overcast,0,2012-12-08 14:35:00
9:55 AM,55.4,55.4,100,30.10,2.0,Calm,Calm,-,N/A,,Overcast,0,2012-12-08 14:55:00
10:15 AM,55.4,55.4,100,30.10,2.0,Calm,Calm,-,N/A,,Overcast,0,2012-12-08 15:15:00
10:35 AM,55.4,55.4,100,30.10,3.0,West,4.6,-,N/A,,Overcast,270,2012-12-08 15:35:00
10:55 AM,57.2,55.4,94,30.10,5.0,WNW,5.8,-,N/A,,Mostly Cloudy,300,2012-12-08 15:55:00
11:15 AM,59.0,55.4,88,30.09,6.0,West,3.5,-,N/A,,Partly Cloudy,280,2012-12-08 16:15:00
11:35 AM,62.6,55.4,77,30.08,5.0,WNW,3.5,-,N/A,,Haze,290,2012-12-08 16:35:00
11:55 AM,64.4,55.4,73,30.07,5.0,NW,5.8,-,N/A,,Haze,310,2012-12-08 16:55:00
12:15 PM,64.4,55.4,73,30.07,5.0,NW,5.8,-,N/A,,Haze,310,2012-12-08 17:15:00
12:35 PM,66.2,55.4,68,30.06,8.0,WNW,4.6,-,N/A,,Clear,290,2012-12-08 17:35:00
12:55 PM,66.2,55.4,68,30.05,9.0,North,3.5,-,N/A,,Clear,350,2012-12-08 17:55:00
1:15 PM,66.2,55.4,68,30.04,10.0,WNW,3.5,-,N/A,,Clear,300,2012-12-08 18:15:00
1:35 PM,68.0,55.4,64,30.04,10.0,NNW,3.5,-,N/A,,Clear,340,2012-12-08 18:35:00
1:55 PM,66.2,55.4,68,30.03,10.0,WNW,3.5,-,N/A,,Clear,300,2012-12-08 18:55:00
2:15 PM,68.0,55.4,64,30.03,10.0,NNW,3.5,-,N/A,,Clear,340,2012-12-08 19:15:00
2:35 PM,68.0,55.4,64,30.03,10.0,Calm,Calm,-,N/A,,Clear,0,2012-12-08 19:35:00
2:55 PM,68.0,55.4,64,30.03,10.0,Calm,Calm,-,N/A,,Clear,0,2012-12-08 19:55:00
3:15 PM,68.0,55.4,64,30.03,10.0,Calm,Calm,-,N/A,,Clear,0,2012-12-08 20:15:00
3:35 PM,69.8,57.2,64,30.03,10.0,Calm,Calm,-,N/A,,Clear,0,2012-12-08 20:35:00
3:55 PM,68.0,57.2,68,30.03,10.0,Calm,Calm,-,N/A,,Clear,0,2012-12-08 20:55:00
4:15 PM,68.0,57.2,68,30.04,10.0,Calm,Calm,-,N/A,,Clear,0,2012-12-08 21:15:00
4:35 PM,66.2,59.0,78,30.05,9.0,Calm,Calm,-,N/A,,Clear,0,2012-12-08 21:35:00
4:55 PM,64.4,59.0,83,30.05,9.0,Calm,Calm,-,N/A,,Clear,0,2012-12-08 21:55:00
5:15 PM,62.6,59.0,88,30.05,8.0,Calm,Calm,-,N/A,,Clear,0,2012-12-08 22:15:00
5:35 PM,62.6,59.0,88,30.06,8.0,South,3.5,-,N/A,,Clear,170,2012-12-08 22:35:00
5:55 PM,60.8,57.2,88,30.06,7.0,Calm,Calm,-,N/A,,Clear,0,2012-12-08 22:55:00
6:15 PM,59.0,57.2,94,30.07,7.0,Calm,Calm,-,N/A,,Clear,0,2012-12-08 23:15:00
6:35 PM,59.0,57.2,94,30.08,7.0,Calm,Calm,-,N/A,,Clear,0,2012-12-08 23:35:00
6:55 PM,57.2,57.2,100,30.08,5.0,South,3.5,-,N/A,,Clear,170,2012-12-08 23:55:00
7:15 PM,59.0,57.2,94,30.09,5.0,Calm,Calm,-,N/A,,Clear,0,2012-12-09 00:15:00
7:35 PM,57.2,57.2,100,30.09,5.0,Calm,Calm,-,N/A,,Scattered Clouds,0,2012-12-09 00:35:00
7:55 PM,57.2,57.2,100,30.09,5.0,Calm,Calm,-,N/A,,Mostly Cloudy,0,2012-12-09 00:55:00
8:15 PM,57.2,57.2,100,30.09,5.0,Calm,Calm,-,N/A,,Overcast,0,2012-12-09 01:15:00
8:35 PM,57.2,57.2,100,30.09,5.0,Calm,Calm,-,N/A,,Overcast,0,2012-12-09 01:35:00
8:55 PM,57.2,55.4,94,30.09,4.0,Calm,Calm,-,N/A,,Scattered Clouds,0,2012-12-09 01:55:00
9:15 PM,55.4,55.4,100,30.10,3.0,Calm,Calm,-,N/A,,Clear,0,2012-12-09 02:15:00
9:35 PM,55.4,55.4,100,30.09,4.0,Calm,Calm,-,N/A,,Clear,0,2012-12-09 02:35:00
9:55 PM,55.4,55.4,100,30.10,2.5,Calm,Calm,-,N/A,,Clear,0,2012-12-09 02:55:00
10:15 PM,55.4,55.4,100,30.10,0.8,SSW,3.5,-,N/A,,Mist,200,2012-12-09 03:15:00
10:35 PM,55.4,55.4,100,30.10,2.5,Calm,Calm,-,N/A,,Clear,0,2012-12-09 03:35:00
10:55 PM,55.4,55.4,100,30.10,1.8,Calm,Calm,-,N/A,,Clear,0,2012-12-09 03:55:00
11:15 PM,53.6,53.6,100,30.10,1.8,Calm,Calm,-,N/A,,Clear,0,2012-12-09 04:15:00
11:35 PM,53.6,53.6,100,30.09,5.0,Calm,Calm,-,N/A,,Clear,0,2012-12-09 04:35:00
11:55 PM,53.6,53.6,100,30.09,5.0,Calm,Calm,-,N/A,,Clear,0,2012-12-09 04:55:00